SL-14 DEB, 45315

Orbit data source: Space-Track

SL-14 DEB, 45315 is space debris in LEO originally from a launch on Thu, 15 Aug 1991 UTC launched from the Plesetsk Missile And Space Complex (PKMTR). Debris objects in space refer to the collection of defunct objects orbiting the Earth. Examples of debris include non-operational satellites, rocket bodies, and fragments generated from explosions, collisions, or faulty payload assembly.

Loading next visibility...
SL-14 DEB details
Identifier
45315, 1991-056BD
Orbit
LEO
Last TLE update13 hours ago
Origin
Flag of CISRosgidromet (CIS)
ManufacturerUnknown
MissionSpacecraft
Bus & MotorUnknown
MassUnknown
Launch date (UTC)
1991-08-15 (33 years ago)
Launch vehicleUnknown
Launch site
Plesetsk Missile And Space Complex (PKMTR)
Object type
Payload
Rocket body
Debris
Shape & HBRUnknown
Radar Cross SectionSmall (<0.1 m²)

Expand to show TLE details & history

TLE from 13 hours ago
0 SL-14 DEB
1 45315U 91056BD  24338.83486551  .00000387  00000-0  99939-3 0  9999
2 45315  82.5610 181.5605 0026255 156.7647 203.4667 13.15099235228945
Epoch: 2024-12-03T20:02Z
Definitive object data (Epoch: 2024-12-03T20:02:12.38Z)
Latitude-0.00006°
Longitude167.87023°
Altitude1,224.573 km
Speed7.233 km/s
True Right ascension12h 06m 14s
True Declination0° 00' 00"
Sunlit
Object was in daylight at TLE epoch
Visualization TLE readout
Latitude-43.2657°
Longitude160.47861°
Altitude1,238.893 km
Speed7.225 km/s
Apparent Right ascension14h 45m 10s
Apparent Declination-54° 56' 16"
Sunlit
Object is in daylight
Visualization observer readout
Local Sidereal Time06:29:54
Azimuth131.526° SE
Elevation-50.392°
Doppler factor1
Orbital elements
Apogee altitude1,220.642 km
Perigee altitude1,180.846 km
Semi-major axis7,578.881 km
Eccentricity0.0026255
Inclination82.561°
RAAN181.5605°
Arg. of periapsis156.7647°
True anomaly203.34725°
Mean anomaly203.4667°
Eccentric anomaly203.40694°
Mean motion3.28954 °/min
BSTAR0.00099939
Orbital period109.44 mins
Loading maneuver chart data...
Loading historical data...
Loading historical data...
Loading historical data...
Loading historical data...
Loading historical data...
Loading historical data...
Loading historical data...

SL-14 DEB Visibility forecast

Observer location: undefined°, undefined

Span
Click to sort rows by Start time (UTC) header in descending order
Start Az.
Max El. time (UTC)
Max El. Az.
Max El.
End time (UTC)
End Az.
6 mins2024-12-04 12:37:45.674Z103.06° ESE2024-12-04 12:40:45.674Z78.331° E13.087°2024-12-04 12:43:45.674Z53.42° ENE
13 mins2024-12-04 14:23:45.674Z182.83° SSW2024-12-04 14:29:45.674Z143.557° SSE44.786°2024-12-04 14:36:45.674Z8.848° NNE
7 mins2024-12-04 16:18:45.674Z271.297° WNW2024-12-04 16:21:45.674Z299.264° NW16.193°2024-12-04 16:25:45.674Z332.959° NNW
8 mins2024-12-05 00:02:45.674Z30.256° NE2024-12-05 00:06:45.674Z69.205° E19.379°2024-12-05 00:10:45.674Z106.919° ESE
13 mins2024-12-05 01:51:45.674Z346.151° N2024-12-05 01:57:45.674Z258.79° W43.209°2024-12-05 02:04:45.674Z184.662° SSW
|